Weather Roundup
Issued by NWS Chicago, IL

Home | Current Version | Previous Version | Text Only | Print | Product List | Glossary Off
Versions: 1 2 3 4 5 6 7 8 9 10 11 12 13 14 15 16 17 18 19 20 21 22 23 24 25 26 27 28 29 30 31 32 33 34 35 36 37 38 39 40 41 42 43 44 45 46 47 48 49 50

000
NZUS59 KLOT 260110
HRRLOT

CHICAGO AREA WEATHER ROUNDUP
NATIONAL WEATHER SERVICE CHICAGO/ROMEOVILLE IL
800 PM CDT SAT OCT 25 2014

NOTE: "FAIR" INDICATES FEW OR NO CLOUDS BELOW 12,000 FEET WITH NO
SIGNIFICANT WEATHER AND/OR OBSTRUCTIONS TO VISIBILITY.

* THESE STATIONS ARE NOT UNDER NWS QUALITY CONTROL. THEY ALSO MAY NOT
  REPORT WEATHER SUCH AS PRECIPITATION OR FOG.

ILZ005-006-012>014-019>023-260200-
NORTHEAST ILLINOIS

CITY           SKY/WX    TMP DP  RH WIND       PRES   REMARKS
OHARE          CLEAR     60  29  30 NW10      29.94R
MIDWAY         CLEAR     64  29  26 W10       29.94R
AURORA         CLEAR     49  33  54 W8        29.97R
LANSING*       CLEAR     61  30  31 W6        29.94R
JOLIET*        CLEAR     58  32  37 W5        29.97R
WAUKEGAN       CLEAR     58  26  29 W7        29.93R
DUPAGE AIRPORT CLEAR     59  30  33 W12       29.96R
WHEELING       CLEAR     63  27  25 NW13      29.96R
KANKAKEE*      CLEAR     52  36  53 SW5       29.96S
MORRIS*        CLEAR     54  37  52 W5        29.96S
LEWIS AIRPORT* CLEAR     59  29  32 NW7       29.96R
NORTHERLY IS     N/A     65  27  24 W9          N/A
$$

WIZ051-052-058>065-066-070>072-260200-
SOUTHEAST WISCONSIN

CITY           SKY/WX    TMP DP  RH WIND       PRES   REMARKS
MILWAUKEE      CLEAR     61  24  24 NW12G23   29.93R
KENOSHA*       CLEAR     55  30  38 W8        29.94R
RACINE*        CLEAR     59  27  29 W9        29.95R
BURLINGTON     CLEAR     51  28  39 NW9       29.95R
WEST BEND      CLEAR     55  23  28 W13       29.93R
$$

INZ001>003-010>013-019-020-260200-
NORTHWEST INDIANA

CITY           SKY/WX    TMP DP  RH WIND       PRES   REMARKS
GARY*          CLEAR     64  27  24 W14       29.94R
MICHIGAN CITY* NOT AVBL
RENSSELAER*    NOT AVBL
VALPARAISO     CLEAR     62  28  27 W12       29.93R
$$

LMZ740>746-260200-
SOUTHERN LAKE MICHIGAN

STATION/POSITION TIME  SKY/WX   TEMP WIND        PRES    VSBY
                                AIR  DIR/SP/G
                 (UTC)          (F)  (DEG/KT/KT) (MB)    (MI)
HARRISON CRIB    0000            66  290/ 14/ 18   N/A
BURNHAM HARBOR   0100            65  300/  5/ 13   N/A
CALUMET HARBOR   0100            65  270/  5/  9 1012.5R
BURNS HARBOR     NOT AVBL
MICHIGAN CITY    0100            60  260/ 15/ 17   N/A
$$

ABBREVIATIONS USED IN REMARKS
   TC - TEMPERATURE IN CELSIUS
  WCI - WIND CHILL INDEX
   HX - HEAT INDEX
  VSB - VISIBILITY
$$



USA.gov is the U.S. government's official web portal to all federal, state and local government web resources and services.